Year,Month,Day,Hour,Minute,Value (Times are PST for temperature in C)
2010,08,16,00,00,15.90
2010,08,16,00,01,15.90
2010,08,16,00,02,15.90
2010,08,16,00,03,15.90
2010,08,16,00,04,15.90
2010,08,16,00,05,15.90
2010,08,16,00,06,15.80
2010,08,16,00,07,15.80
2010,08,16,00,08,15.70
2010,08,16,00,09,15.70
2010,08,16,00,10,15.70
2010,08,16,00,11,15.60
2010,08,16,00,12,15.60
2010,08,16,00,13,15.60
2010,08,16,00,14,15.60
2010,08,16,00,15,15.60
2010,08,16,00,16,15.60
2010,08,16,00,17,15.70
2010,08,16,00,18,15.70
2010,08,16,00,19,15.70
2010,08,16,00,20,15.70
2010,08,16,00,21,15.80
2010,08,16,00,22,15.80
2010,08,16,00,23,15.80
2010,08,16,00,24,15.80
2010,08,16,00,25,15.80
2010,08,16,00,26,15.80
2010,08,16,00,27,15.80
2010,08,16,00,28,15.80
2010,08,16,00,29,15.80
2010,08,16,00,30,15.80
2010,08,16,00,31,15.90
2010,08,16,00,32,15.90
2010,08,16,00,33,15.90
2010,08,16,00,34,15.90
2010,08,16,00,35,15.90
2010,08,16,00,36,15.90
2010,08,16,00,37,15.90
2010,08,16,00,38,15.90
2010,08,16,00,39,15.90
2010,08,16,00,40,15.90
2010,08,16,00,41,15.90
2010,08,16,00,42,15.90
2010,08,16,00,43,15.90
2010,08,16,00,44,15.90
2010,08,16,00,45,15.90
2010,08,16,00,46,15.90
2010,08,16,00,47,15.80
2010,08,16,00,48,15.80
2010,08,16,00,49,15.80
2010,08,16,00,50,15.80
2010,08,16,00,51,15.80
2010,08,16,00,52,15.70
2010,08,16,00,53,15.70
2010,08,16,00,54,15.70
2010,08,16,00,55,15.70
2010,08,16,00,56,15.70
2010,08,16,00,57,15.70
2010,08,16,00,58,15.70
2010,08,16,00,59,15.70
2010,08,16,01,00,15.70
2010,08,16,01,01,15.60
2010,08,16,01,02,15.60
2010,08,16,01,03,15.60
2010,08,16,01,04,15.60
2010,08,16,01,05,15.60
2010,08,16,01,06,15.60
2010,08,16,01,07,15.60
2010,08,16,01,08,15.60
2010,08,16,01,09,15.60
2010,08,16,01,10,15.60
2010,08,16,01,11,15.60
2010,08,16,01,12,15.60
2010,08,16,01,13,15.60
2010,08,16,01,14,15.60
2010,08,16,01,15,15.60
2010,08,16,01,16,15.60
2010,08,16,01,17,15.60
2010,08,16,01,18,15.60
2010,08,16,01,19,15.60
2010,08,16,01,20,15.60
2010,08,16,01,21,15.60
2010,08,16,01,22,15.60
2010,08,16,01,23,15.60
2010,08,16,01,24,15.50
2010,08,16,01,25,15.50
2010,08,16,01,26,15.50
2010,08,16,01,27,15.40
2010,08,16,01,28,15.40
2010,08,16,01,29,15.40
2010,08,16,01,30,15.40
2010,08,16,01,31,15.40
2010,08,16,01,32,15.30
2010,08,16,01,33,15.30
2010,08,16,01,34,15.30
2010,08,16,01,35,15.30
2010,08,16,01,36,15.30
2010,08,16,01,37,15.30
2010,08,16,01,38,15.30
2010,08,16,01,39,15.30
2010,08,16,01,40,15.30
2010,08,16,01,41,15.20
2010,08,16,01,42,15.20
2010,08,16,01,43,15.10
2010,08,16,01,44,15.10
2010,08,16,01,45,15.10
2010,08,16,01,46,15.10
2010,08,16,01,47,15.10
2010,08,16,01,48,15.10
2010,08,16,01,49,15.10
2010,08,16,01,50,15.10
2010,08,16,01,51,15.10
2010,08,16,01,52,15.10
2010,08,16,01,53,15.10
2010,08,16,01,54,15.10
2010,08,16,01,55,15.10
2010,08,16,01,56,15.10
2010,08,16,01,57,15.10
2010,08,16,01,58,15.10
2010,08,16,01,59,15.10
2010,08,16,02,00,15.10
2010,08,16,02,01,15.10
2010,08,16,02,02,15.20
2010,08,16,02,03,15.20
2010,08,16,02,04,15.20
2010,08,16,02,05,15.20
2010,08,16,02,06,15.20
2010,08,16,02,07,15.20
2010,08,16,02,08,15.20
2010,08,16,02,09,15.20
2010,08,16,02,10,15.20
2010,08,16,02,11,15.20
2010,08,16,02,12,15.20
2010,08,16,02,13,15.20
2010,08,16,02,14,15.20
2010,08,16,02,15,15.20
2010,08,16,02,16,15.20
2010,08,16,02,17,15.20
2010,08,16,02,18,15.20
2010,08,16,02,19,15.20
2010,08,16,02,20,15.20
2010,08,16,02,21,15.30
2010,08,16,02,22,15.30
2010,08,16,02,23,15.30
2010,08,16,02,24,15.40
2010,08,16,02,25,15.40
2010,08,16,02,26,15.50
2010,08,16,02,27,15.50
2010,08,16,02,28,15.50
2010,08,16,02,29,15.50
2010,08,16,02,30,15.60
2010,08,16,02,31,15.60
2010,08,16,02,32,15.70
2010,08,16,02,33,15.70
2010,08,16,02,34,15.80
2010,08,16,02,35,15.80
2010,08,16,02,36,15.80
2010,08,16,02,37,15.80
2010,08,16,02,38,15.90
2010,08,16,02,39,15.90
2010,08,16,02,40,15.90
2010,08,16,02,41,15.90
2010,08,16,02,42,15.90
2010,08,16,02,43,15.90
2010,08,16,02,44,15.90
2010,08,16,02,45,15.90
2010,08,16,02,46,15.90
2010,08,16,02,47,16.00
2010,08,16,02,48,16.00
2010,08,16,02,49,16.10
2010,08,16,02,50,16.10
2010,08,16,02,51,16.20
2010,08,16,02,52,16.20
2010,08,16,02,53,16.20
2010,08,16,02,54,16.20
2010,08,16,02,55,16.20
2010,08,16,02,56,16.30
2010,08,16,02,57,16.30
2010,08,16,02,58,16.30
2010,08,16,02,59,16.40
2010,08,16,03,00,16.40
2010,08,16,03,01,16.40
2010,08,16,03,02,16.40
2010,08,16,03,03,16.50
2010,08,16,03,06,16.50
2010,08,16,03,07,16.50
2010,08,16,03,08,16.60
2010,08,16,03,09,16.50
2010,08,16,03,10,16.50
2010,08,16,03,11,16.50
2010,08,16,03,12,16.50
2010,08,16,03,13,16.40
2010,08,16,03,14,16.40
2010,08,16,03,15,16.40
2010,08,16,03,16,16.40
2010,08,16,03,17,16.30
2010,08,16,03,18,16.30
2010,08,16,03,19,16.30
2010,08,16,03,20,16.20
2010,08,16,03,21,16.20
2010,08,16,03,22,16.20
2010,08,16,03,23,16.10
2010,08,16,03,24,16.10
2010,08,16,03,25,16.10
2010,08,16,03,26,16.00
2010,08,16,03,27,16.00
2010,08,16,03,28,16.00
2010,08,16,03,29,15.90
2010,08,16,03,30,15.90
2010,08,16,03,31,15.90
2010,08,16,03,32,15.90
2010,08,16,03,33,15.80
2010,08,16,03,34,15.80
2010,08,16,03,35,15.80
2010,08,16,03,36,15.80
2010,08,16,03,37,15.70
2010,08,16,03,38,15.70
2010,08,16,03,39,15.70
2010,08,16,03,40,15.70
2010,08,16,03,41,15.70
2010,08,16,03,42,15.60
2010,08,16,03,43,15.60
2010,08,16,03,44,15.60
2010,08,16,03,45,15.60
2010,08,16,03,46,15.60
2010,08,16,03,47,15.50
2010,08,16,03,48,15.50
2010,08,16,03,49,15.50
2010,08,16,03,50,15.40
2010,08,16,03,51,15.40
2010,08,16,03,52,15.40
2010,08,16,03,53,15.40
2010,08,16,03,54,15.40
2010,08,16,03,55,15.30
2010,08,16,03,56,15.30
2010,08,16,03,57,15.30
2010,08,16,03,58,15.30
2010,08,16,03,59,15.30
2010,08,16,04,00,15.30
2010,08,16,04,01,15.20
2010,08,16,04,02,15.20
2010,08,16,04,03,15.20
2010,08,16,04,04,15.20
2010,08,16,04,05,15.10
2010,08,16,04,06,15.10
2010,08,16,04,07,15.00
2010,08,16,04,08,15.00
2010,08,16,04,09,14.90
2010,08,16,04,10,14.90
2010,08,16,04,11,14.90
2010,08,16,04,12,14.80
2010,08,16,04,13,14.80
2010,08,16,04,14,14.80
2010,08,16,04,15,14.70
2010,08,16,04,16,14.70
2010,08,16,04,17,14.70
2010,08,16,04,18,14.70
2010,08,16,04,19,14.70
2010,08,16,04,20,14.70
2010,08,16,04,21,14.70
2010,08,16,04,22,14.60
2010,08,16,04,23,14.60
2010,08,16,04,24,14.60
2010,08,16,04,25,14.60
2010,08,16,04,26,14.60
2010,08,16,04,27,14.50
2010,08,16,04,28,14.50
2010,08,16,04,29,14.50
2010,08,16,04,30,14.50
2010,08,16,04,31,14.40
2010,08,16,04,32,14.40
2010,08,16,04,33,14.40
2010,08,16,04,34,14.40
2010,08,16,04,35,14.40
2010,08,16,04,36,14.40
2010,08,16,04,37,14.40
2010,08,16,04,38,14.30
2010,08,16,04,39,14.30
2010,08,16,04,40,14.30
2010,08,16,04,41,14.30
2010,08,16,04,42,14.30
2010,08,16,04,43,14.30
2010,08,16,04,44,14.30
2010,08,16,04,45,14.20
2010,08,16,04,46,14.20
2010,08,16,04,47,14.20
2010,08,16,04,48,14.20
2010,08,16,04,49,14.20
2010,08,16,04,50,14.20
2010,08,16,04,51,14.20
2010,08,16,04,52,14.20
2010,08,16,04,53,14.20
2010,08,16,04,54,14.10
2010,08,16,04,55,14.10
2010,08,16,04,56,14.10
2010,08,16,04,57,14.10
2010,08,16,04,58,14.10
2010,08,16,04,59,14.10
2010,08,16,05,00,14.10
2010,08,16,05,01,14.00
2010,08,16,05,02,14.00
2010,08,16,05,03,14.00
2010,08,16,05,04,14.00
2010,08,16,05,05,14.00
2010,08,16,05,06,14.00
2010,08,16,05,07,13.90
2010,08,16,05,08,13.90
2010,08,16,05,09,13.90
2010,08,16,05,10,13.90
2010,08,16,05,11,13.90
2010,08,16,05,12,13.90
2010,08,16,05,13,13.80
2010,08,16,05,14,13.80
2010,08,16,05,15,13.80
2010,08,16,05,16,13.80
2010,08,16,05,17,13.80
2010,08,16,05,18,13.80
2010,08,16,05,19,13.70
2010,08,16,05,20,13.70
2010,08,16,05,21,13.70
2010,08,16,05,22,13.70
2010,08,16,05,23,13.70
2010,08,16,05,24,13.60
2010,08,16,05,25,13.60
2010,08,16,05,26,13.60
2010,08,16,05,27,13.60
2010,08,16,05,28,13.60
2010,08,16,05,29,13.60
2010,08,16,05,30,13.60
2010,08,16,05,31,13.50
2010,08,16,05,32,13.50
2010,08,16,05,33,13.50
2010,08,16,05,34,13.50
2010,08,16,05,35,13.50
2010,08,16,05,36,13.50
2010,08,16,05,37,13.50
2010,08,16,05,38,13.50
2010,08,16,05,39,13.40
2010,08,16,05,40,13.40
2010,08,16,05,41,13.40
2010,08,16,05,42,13.40
2010,08,16,05,43,13.40
2010,08,16,05,44,13.40
2010,08,16,05,45,13.40
2010,08,16,05,46,13.40
2010,08,16,05,47,13.40
2010,08,16,05,48,13.30
2010,08,16,05,49,13.30
2010,08,16,05,50,13.30
2010,08,16,05,51,13.30
2010,08,16,05,52,13.30
2010,08,16,05,53,13.30
2010,08,16,05,54,13.30
2010,08,16,05,55,13.30
2010,08,16,05,56,13.30
2010,08,16,05,57,13.30
2010,08,16,05,58,13.20
2010,08,16,05,59,13.20
2010,08,16,06,00,13.20
2010,08,16,06,01,13.20
2010,08,16,06,02,13.20
2010,08,16,06,03,13.20
2010,08,16,06,04,13.10
2010,08,16,06,05,13.10
2010,08,16,06,06,13.10
2010,08,16,06,07,13.10
2010,08,16,06,08,13.10
2010,08,16,06,09,13.10
2010,08,16,06,10,13.10
2010,08,16,06,11,13.10
2010,08,16,06,12,13.10
2010,08,16,06,13,13.10
2010,08,16,06,14,13.10
2010,08,16,06,15,13.00
2010,08,16,06,16,13.10
2010,08,16,06,17,13.10
2010,08,16,06,18,13.10
2010,08,16,06,19,13.10
2010,08,16,06,20,13.10
2010,08,16,06,21,13.10
2010,08,16,06,22,13.10
2010,08,16,06,23,13.10
2010,08,16,06,24,13.10
2010,08,16,06,25,13.10
2010,08,16,06,26,13.10
2010,08,16,06,27,13.10
2010,08,16,06,28,13.10
2010,08,16,06,29,13.10
2010,08,16,06,30,13.10
2010,08,16,06,31,13.00
2010,08,16,06,32,13.00
2010,08,16,06,33,13.00
2010,08,16,06,34,13.00
2010,08,16,06,35,13.00
2010,08,16,06,36,13.00
2010,08,16,06,37,13.00
2010,08,16,06,38,13.00
2010,08,16,06,39,12.90
2010,08,16,06,40,12.90
2010,08,16,06,41,12.90
2010,08,16,06,42,12.90
2010,08,16,06,43,12.90
2010,08,16,06,44,12.90
2010,08,16,06,45,12.90
2010,08,16,06,46,12.90
2010,08,16,06,47,12.90
2010,08,16,06,48,12.90
2010,08,16,06,49,12.90
2010,08,16,06,50,12.90
2010,08,16,06,51,12.90
2010,08,16,06,52,12.90
2010,08,16,06,53,12.90
2010,08,16,06,54,12.90
2010,08,16,06,55,12.90
2010,08,16,06,56,12.90
2010,08,16,06,57,12.90
2010,08,16,06,58,12.90
2010,08,16,06,59,12.90
2010,08,16,07,00,12.90
2010,08,16,07,01,12.90
2010,08,16,07,02,12.90
2010,08,16,07,03,12.90
2010,08,16,07,04,12.90
2010,08,16,07,05,12.90
2010,08,16,07,06,12.90
2010,08,16,07,07,12.90
2010,08,16,07,08,12.90
2010,08,16,07,09,12.90
2010,08,16,07,10,12.90
2010,08,16,07,11,12.90
2010,08,16,07,12,12.90
2010,08,16,07,13,12.90
2010,08,16,07,14,12.90
2010,08,16,07,15,12.90
2010,08,16,07,16,12.90
2010,08,16,07,17,12.90
2010,08,16,07,18,12.90
2010,08,16,07,19,12.90
2010,08,16,07,20,12.90
2010,08,16,07,21,12.90
2010,08,16,07,22,12.90
2010,08,16,07,23,12.90
2010,08,16,07,24,12.90
2010,08,16,07,25,12.90
2010,08,16,07,26,12.90
2010,08,16,07,27,12.90
2010,08,16,07,28,12.90
2010,08,16,07,29,12.90
2010,08,16,07,30,12.90
2010,08,16,07,31,13.00
2010,08,16,07,32,13.00
2010,08,16,07,33,13.00
2010,08,16,07,34,13.00
2010,08,16,07,35,13.00
2010,08,16,07,36,13.00
2010,08,16,07,37,13.00
2010,08,16,07,38,13.00
2010,08,16,07,39,12.90
2010,08,16,07,40,13.00
2010,08,16,07,41,13.00
2010,08,16,07,42,13.00
2010,08,16,07,43,13.00
2010,08,16,07,44,13.00
2010,08,16,07,45,13.00
2010,08,16,07,46,13.00
2010,08,16,07,47,13.10
2010,08,16,07,48,13.10
2010,08,16,07,49,13.10
2010,08,16,07,50,13.10
2010,08,16,07,51,13.10
2010,08,16,07,52,13.10
2010,08,16,07,53,13.10
2010,08,16,07,54,13.10
2010,08,16,07,55,13.10
2010,08,16,07,56,13.20
2010,08,16,07,57,13.20
2010,08,16,07,58,13.20
2010,08,16,07,59,13.20
2010,08,16,08,00,13.20
2010,08,16,08,01,13.20
2010,08,16,08,02,13.20
2010,08,16,08,03,13.20
2010,08,16,08,04,13.20
2010,08,16,08,05,13.20
2010,08,16,08,06,13.20
2010,08,16,08,07,13.20
2010,08,16,08,08,13.20
2010,08,16,08,09,13.30
2010,08,16,08,10,13.30
2010,08,16,08,11,13.30
2010,08,16,08,12,13.20
2010,08,16,08,13,13.20
2010,08,16,08,14,13.20
2010,08,16,08,15,13.20
2010,08,16,08,16,13.20
2010,08,16,08,17,13.30
2010,08,16,08,18,13.30
2010,08,16,08,19,13.30
2010,08,16,08,20,13.30
2010,08,16,08,21,13.30
2010,08,16,08,22,13.30
2010,08,16,08,23,13.30
2010,08,16,08,24,13.40
2010,08,16,08,25,13.40
2010,08,16,08,26,13.40
2010,08,16,08,27,13.40
2010,08,16,08,28,13.40
2010,08,16,08,29,13.50
2010,08,16,08,30,13.50
2010,08,16,08,31,13.50
2010,08,16,08,32,13.50
2010,08,16,08,33,13.50
2010,08,16,08,34,13.50
2010,08,16,08,35,13.50
2010,08,16,08,36,13.50
2010,08,16,08,37,13.50
2010,08,16,08,38,13.60
2010,08,16,08,39,13.60
2010,08,16,08,40,13.60
2010,08,16,08,41,13.60
2010,08,16,08,42,13.60
2010,08,16,08,43,13.60
2010,08,16,08,44,13.60
2010,08,16,08,45,13.60
2010,08,16,08,46,13.70
2010,08,16,08,47,13.70
2010,08,16,08,48,13.70
2010,08,16,08,49,13.80
2010,08,16,08,50,13.80
2010,08,16,08,51,13.80
2010,08,16,08,52,13.80
2010,08,16,08,53,13.80
2010,08,16,08,54,13.80
2010,08,16,08,55,13.80
2010,08,16,08,56,13.80
2010,08,16,08,57,13.80
2010,08,16,08,58,13.80
2010,08,16,08,59,13.90
2010,08,16,09,00,13.90
2010,08,16,09,01,14.00
2010,08,16,09,02,14.00
2010,08,16,09,03,14.10
2010,08,16,09,04,14.10
2010,08,16,09,05,14.10
2010,08,16,09,06,14.20
2010,08,16,09,07,14.20
2010,08,16,09,08,14.20
2010,08,16,09,09,14.20
2010,08,16,09,10,14.30
2010,08,16,09,11,14.30
2010,08,16,09,12,14.30
2010,08,16,09,13,14.40
2010,08,16,09,14,14.40
2010,08,16,09,15,14.50
2010,08,16,09,16,14.50
2010,08,16,09,17,14.60
2010,08,16,09,18,14.70
2010,08,16,09,19,14.80
2010,08,16,09,20,14.90
2010,08,16,09,21,15.00
2010,08,16,09,22,15.10
2010,08,16,09,23,15.20
2010,08,16,09,24,15.30
2010,08,16,09,25,15.40
2010,08,16,09,26,15.50
2010,08,16,09,27,15.50
2010,08,16,09,28,15.50
2010,08,16,09,29,15.40
2010,08,16,09,30,15.30
2010,08,16,09,31,15.20
2010,08,16,09,32,15.10
2010,08,16,09,33,15.10
2010,08,16,09,34,15.00
2010,08,16,09,35,15.00
2010,08,16,09,36,15.00
2010,08,16,09,37,14.90
2010,08,16,09,38,14.90
2010,08,16,09,39,14.80
2010,08,16,09,40,14.80
2010,08,16,09,41,14.80
2010,08,16,09,42,14.80
2010,08,16,09,43,14.80
2010,08,16,09,44,14.80
2010,08,16,09,45,14.80
2010,08,16,09,46,14.90
2010,08,16,09,47,14.90
2010,08,16,09,48,14.90
2010,08,16,09,49,14.90
2010,08,16,09,50,14.90
2010,08,16,09,51,14.90
2010,08,16,09,52,14.90
2010,08,16,09,53,14.80
2010,08,16,09,54,14.90
2010,08,16,09,55,14.80
2010,08,16,09,56,14.90
2010,08,16,09,57,14.90
2010,08,16,09,58,14.90
2010,08,16,09,59,15.00
2010,08,16,10,00,15.00
2010,08,16,10,01,15.10
2010,08,16,10,02,15.10
2010,08,16,10,03,15.10
2010,08,16,10,04,15.10
2010,08,16,10,05,15.10
2010,08,16,10,06,15.20
2010,08,16,10,07,15.20
2010,08,16,10,08,15.20
2010,08,16,10,09,15.20
2010,08,16,10,10,15.30
2010,08,16,10,11,15.30
2010,08,16,10,12,15.40
2010,08,16,10,13,15.40
2010,08,16,10,14,15.50
2010,08,16,10,15,15.50
2010,08,16,10,16,15.70
2010,08,16,10,17,15.80
2010,08,16,10,18,15.90
2010,08,16,10,19,16.00
2010,08,16,10,20,16.10
2010,08,16,10,21,16.20
2010,08,16,10,22,16.20
2010,08,16,10,23,16.30
2010,08,16,10,24,16.30
2010,08,16,10,25,16.30
2010,08,16,10,26,16.20
2010,08,16,10,27,16.20
2010,08,16,10,28,16.20
2010,08,16,10,29,16.10
2010,08,16,10,30,16.10
2010,08,16,10,31,16.10
2010,08,16,10,32,16.10
2010,08,16,10,33,16.10
2010,08,16,10,34,16.10
2010,08,16,10,35,16.10
2010,08,16,10,36,16.10
2010,08,16,10,37,16.00
2010,08,16,10,38,16.10
2010,08,16,10,39,16.20
2010,08,16,10,40,16.20
2010,08,16,10,41,16.20
2010,08,16,10,42,16.20
2010,08,16,10,43,16.30
2010,08,16,10,44,16.30
2010,08,16,10,45,16.40
2010,08,16,10,46,16.50
2010,08,16,10,47,16.60
2010,08,16,10,48,16.70
2010,08,16,10,49,16.80
2010,08,16,10,50,16.80
2010,08,16,10,51,16.90
2010,08,16,10,52,17.00
2010,08,16,10,53,17.10
2010,08,16,10,54,17.10
2010,08,16,10,55,17.20
2010,08,16,10,56,17.20
2010,08,16,10,57,17.30
2010,08,16,10,58,17.30
2010,08,16,10,59,17.40
2010,08,16,11,00,17.40
2010,08,16,11,01,17.40
2010,08,16,11,02,17.40
2010,08,16,11,03,17.40
2010,08,16,11,04,17.30
2010,08,16,11,05,17.20
2010,08,16,11,06,17.10
2010,08,16,11,07,17.00
2010,08,16,11,08,17.00
2010,08,16,11,09,17.00
2010,08,16,11,10,17.10
2010,08,16,11,11,17.20
2010,08,16,11,12,17.20
2010,08,16,11,13,17.30
2010,08,16,11,14,17.30
2010,08,16,11,15,17.30
2010,08,16,11,16,17.30
2010,08,16,11,17,17.30
2010,08,16,11,18,17.30
2010,08,16,11,19,17.30
2010,08,16,11,20,17.30
2010,08,16,11,21,17.30
2010,08,16,11,22,17.30
2010,08,16,11,23,17.30
2010,08,16,11,24,17.40
2010,08,16,11,25,17.50
2010,08,16,11,26,17.50
2010,08,16,11,27,17.60
2010,08,16,11,28,17.60
2010,08,16,11,29,17.60
2010,08,16,11,30,17.60
2010,08,16,11,31,17.50
2010,08,16,11,32,17.40
2010,08,16,11,33,17.50
2010,08,16,11,34,17.50
2010,08,16,11,35,17.40
2010,08,16,11,36,17.30
2010,08,16,11,37,17.20
2010,08,16,11,38,17.00
2010,08,16,11,39,16.90
2010,08,16,11,40,16.70
2010,08,16,11,41,16.60
2010,08,16,11,42,16.50
2010,08,16,11,43,16.50
2010,08,16,11,44,16.40
2010,08,16,11,45,16.40
2010,08,16,11,46,16.40
2010,08,16,11,47,16.40
2010,08,16,11,48,16.50
2010,08,16,11,49,16.60
2010,08,16,11,50,16.70
2010,08,16,11,51,16.80
2010,08,16,11,52,17.00
2010,08,16,11,53,17.10
2010,08,16,11,54,17.20
2010,08,16,11,55,17.30
2010,08,16,11,56,17.40
2010,08,16,11,57,17.50
2010,08,16,11,58,17.60
2010,08,16,11,59,17.70
2010,08,16,12,00,17.80
2010,08,16,12,01,17.80
2010,08,16,12,02,17.90
2010,08,16,12,03,17.90
2010,08,16,12,04,17.80
2010,08,16,12,05,17.70
2010,08,16,12,06,17.70
2010,08,16,12,07,17.60
2010,08,16,12,08,17.50
2010,08,16,12,09,17.40
2010,08,16,12,10,17.40
2010,08,16,12,11,17.50
2010,08,16,12,12,17.60
2010,08,16,12,13,17.60
2010,08,16,12,14,17.60
2010,08,16,12,15,17.60
2010,08,16,12,16,17.60
2010,08,16,12,17,17.70
2010,08,16,12,18,17.70
2010,08,16,12,19,17.90
2010,08,16,12,20,18.00
2010,08,16,12,21,18.00
2010,08,16,12,22,17.90
2010,08,16,12,23,17.90
2010,08,16,12,24,17.70
2010,08,16,12,25,17.60
2010,08,16,12,26,17.50
2010,08,16,12,27,17.60
2010,08,16,12,28,17.60
2010,08,16,12,29,17.60
2010,08,16,12,30,17.50
2010,08,16,12,31,17.40
2010,08,16,12,32,17.30
2010,08,16,12,33,17.20
2010,08,16,12,34,17.20
2010,08,16,12,35,17.10
2010,08,16,12,36,17.00
2010,08,16,12,37,16.90
2010,08,16,12,38,16.80
2010,08,16,12,39,16.70
2010,08,16,12,40,16.60
2010,08,16,12,41,16.40
2010,08,16,12,42,16.30
2010,08,16,12,43,16.30
2010,08,16,12,44,16.30
2010,08,16,12,45,16.20
2010,08,16,12,46,16.30
2010,08,16,12,47,16.30
2010,08,16,12,48,16.30
2010,08,16,12,49,16.20
2010,08,16,12,50,16.30
2010,08,16,12,51,16.30
2010,08,16,12,52,16.40
2010,08,16,12,53,16.40
2010,08,16,12,54,16.50
2010,08,16,12,55,16.60
2010,08,16,12,56,16.70
2010,08,16,12,57,16.80
2010,08,16,12,58,16.90
2010,08,16,12,59,16.80
2010,08,16,13,00,16.70
2010,08,16,13,01,16.50
2010,08,16,13,02,16.30
2010,08,16,13,03,16.20
2010,08,16,13,04,16.10
2010,08,16,13,05,16.20
2010,08,16,13,06,16.20
2010,08,16,13,07,16.20
2010,08,16,13,08,16.20
2010,08,16,13,09,16.10
2010,08,16,13,10,16.10
2010,08,16,13,11,16.00
2010,08,16,13,12,15.90
2010,08,16,13,13,15.90
2010,08,16,13,14,15.90
2010,08,16,13,15,15.90
2010,08,16,13,16,16.00
2010,08,16,13,17,16.00
2010,08,16,13,18,16.10
2010,08,16,13,19,16.10
2010,08,16,13,20,16.20
2010,08,16,13,21,16.20
2010,08,16,13,22,16.20
2010,08,16,13,23,16.20
2010,08,16,13,24,16.10
2010,08,16,13,25,16.10
2010,08,16,13,26,16.10
2010,08,16,13,27,16.10
2010,08,16,13,28,16.20
2010,08,16,13,29,16.30
2010,08,16,13,30,16.50
2010,08,16,13,31,16.60
2010,08,16,13,32,16.60
2010,08,16,13,33,16.50
2010,08,16,13,34,16.50
2010,08,16,13,35,16.50
2010,08,16,13,36,16.50
2010,08,16,13,37,16.50
2010,08,16,13,38,16.50
2010,08,16,13,39,16.50
2010,08,16,13,40,16.60
2010,08,16,13,41,16.70
2010,08,16,13,42,16.70
2010,08,16,13,43,16.70
2010,08,16,13,44,16.70
2010,08,16,13,45,16.80
2010,08,16,13,46,16.90
2010,08,16,13,47,17.00
2010,08,16,13,48,17.10
2010,08,16,13,49,17.10
2010,08,16,13,50,17.10
2010,08,16,13,51,17.10
2010,08,16,13,52,17.10
2010,08,16,13,53,17.10
2010,08,16,13,54,17.10
2010,08,16,13,55,17.20
2010,08,16,13,56,17.20
2010,08,16,13,57,17.20
2010,08,16,13,58,17.20
2010,08,16,13,59,17.10
2010,08,16,14,00,17.10
2010,08,16,14,01,17.10
2010,08,16,14,02,17.10
2010,08,16,14,03,17.10
2010,08,16,14,04,17.10
2010,08,16,14,05,17.20
2010,08,16,14,06,17.20
2010,08,16,14,07,17.30
2010,08,16,14,08,17.30
2010,08,16,14,09,17.30
2010,08,16,14,10,17.30
2010,08,16,14,11,17.20
2010,08,16,14,12,17.30
2010,08,16,14,13,17.30
2010,08,16,14,14,17.40
2010,08,16,14,15,17.40
2010,08,16,14,16,17.30
2010,08,16,14,17,17.30
2010,08,16,14,18,17.20
2010,08,16,14,19,17.20
2010,08,16,14,20,17.20
2010,08,16,14,21,17.30
2010,08,16,14,22,17.20
2010,08,16,14,23,17.20
2010,08,16,14,24,17.10
2010,08,16,14,25,17.00
2010,08,16,14,26,16.90
2010,08,16,14,27,16.70
2010,08,16,14,28,16.50
2010,08,16,14,29,16.40
2010,08,16,14,30,16.50
2010,08,16,14,31,16.50
2010,08,16,14,32,16.50
2010,08,16,14,33,16.40
2010,08,16,14,34,16.40
2010,08,16,14,35,16.30
2010,08,16,14,36,16.20
2010,08,16,14,37,16.10
2010,08,16,14,38,16.00
2010,08,16,14,39,16.00
2010,08,16,14,40,16.10
2010,08,16,14,41,16.10
2010,08,16,14,42,16.20
2010,08,16,14,43,16.20
2010,08,16,14,44,16.30
2010,08,16,14,45,16.30
2010,08,16,14,46,16.40
2010,08,16,14,47,16.60
2010,08,16,14,48,16.70
2010,08,16,14,49,16.80
2010,08,16,14,50,16.90
2010,08,16,14,51,16.90
2010,08,16,14,52,16.80
2010,08,16,14,53,16.70
2010,08,16,14,54,16.60
2010,08,16,14,55,16.60
2010,08,16,14,56,16.50
2010,08,16,14,57,16.40
2010,08,16,14,58,16.40
2010,08,16,14,59,16.40
2010,08,16,15,00,16.50
2010,08,16,15,01,16.60
2010,08,16,15,02,16.50
2010,08,16,15,03,16.50
2010,08,16,15,04,16.50
2010,08,16,15,05,16.60
2010,08,16,15,06,16.70
2010,08,16,15,07,16.70
2010,08,16,15,08,16.80
2010,08,16,15,09,16.90
2010,08,16,15,10,17.00
2010,08,16,15,11,17.10
2010,08,16,15,12,17.00
2010,08,16,15,13,16.90
2010,08,16,15,14,16.80
2010,08,16,15,15,16.80
2010,08,16,15,16,16.80
2010,08,16,15,17,16.80
2010,08,16,15,18,16.80
2010,08,16,15,19,16.80
2010,08,16,15,20,16.80
2010,08,16,15,21,16.80
2010,08,16,15,22,16.80
2010,08,16,15,23,16.90
2010,08,16,15,24,16.90
2010,08,16,15,25,16.70
2010,08,16,15,26,16.50
2010,08,16,15,27,16.50
2010,08,16,15,28,16.50
2010,08,16,15,29,16.60
2010,08,16,15,30,16.60
2010,08,16,15,31,16.60
2010,08,16,15,32,16.60
2010,08,16,15,33,16.70
2010,08,16,15,34,16.60
2010,08,16,15,35,16.50
2010,08,16,15,36,16.40
2010,08,16,15,37,16.40
2010,08,16,15,38,16.40
2010,08,16,15,39,16.20
2010,08,16,15,40,16.00
2010,08,16,15,41,15.80
2010,08,16,15,42,15.70
2010,08,16,15,43,15.70
2010,08,16,15,44,15.60
2010,08,16,15,45,15.60
2010,08,16,15,46,15.50
2010,08,16,15,47,15.40
2010,08,16,15,48,15.30
2010,08,16,15,49,15.30
2010,08,16,15,50,15.30
2010,08,16,15,51,15.30
2010,08,16,15,52,15.20
2010,08,16,15,53,15.20
2010,08,16,15,54,15.20
2010,08,16,15,55,15.20
2010,08,16,15,56,15.20
2010,08,16,15,57,15.20
2010,08,16,15,58,15.30
2010,08,16,15,59,15.30
2010,08,16,16,00,15.30
2010,08,16,16,01,15.30
2010,08,16,16,02,15.40
2010,08,16,16,03,15.50
2010,08,16,16,04,15.60
2010,08,16,16,05,15.60
2010,08,16,16,06,15.50
2010,08,16,16,07,15.50
2010,08,16,16,08,15.50
2010,08,16,16,09,15.50
2010,08,16,16,10,15.40
2010,08,16,16,11,15.40
2010,08,16,16,12,15.30
2010,08,16,16,13,15.30
2010,08,16,16,14,15.30
2010,08,16,16,15,15.30
2010,08,16,16,16,15.30
2010,08,16,16,17,15.40
2010,08,16,16,18,15.50
2010,08,16,16,19,15.50
2010,08,16,16,20,15.60
2010,08,16,16,21,15.60
2010,08,16,16,22,15.70
2010,08,16,16,23,15.70
2010,08,16,16,24,15.70
2010,08,16,16,25,15.70
2010,08,16,16,26,15.70
2010,08,16,16,27,15.60
2010,08,16,16,28,15.50
2010,08,16,16,29,15.50
2010,08,16,16,30,15.40
2010,08,16,16,31,15.40
2010,08,16,16,32,15.30
2010,08,16,16,33,15.30
2010,08,16,16,34,15.30
2010,08,16,16,35,15.30
2010,08,16,16,36,15.40
2010,08,16,16,37,15.40
2010,08,16,16,38,15.40
2010,08,16,16,39,15.30
2010,08,16,16,40,15.40
2010,08,16,16,41,15.50
2010,08,16,16,42,15.50
2010,08,16,16,43,15.50
2010,08,16,16,44,15.40
2010,08,16,16,45,15.40
2010,08,16,16,46,15.40
2010,08,16,16,47,15.30
2010,08,16,16,48,15.30
2010,08,16,16,49,15.40
2010,08,16,16,50,15.40
2010,08,16,16,51,15.40
2010,08,16,16,52,15.40
2010,08,16,16,53,15.30
2010,08,16,16,54,15.30
2010,08,16,16,55,15.20
2010,08,16,16,56,15.20
2010,08,16,16,57,15.20
2010,08,16,16,58,15.30
2010,08,16,16,59,15.30
2010,08,16,17,00,15.40
2010,08,16,17,01,15.40
2010,08,16,17,02,15.50
2010,08,16,17,03,15.60
2010,08,16,17,04,15.60
2010,08,16,17,05,15.60
2010,08,16,17,06,15.50
2010,08,16,17,07,15.50
2010,08,16,17,08,15.60
2010,08,16,17,09,15.60
2010,08,16,17,10,15.60
2010,08,16,17,11,15.60
2010,08,16,17,12,15.60
2010,08,16,17,13,15.60
2010,08,16,17,14,15.60
2010,08,16,17,15,15.60
2010,08,16,17,16,15.70
2010,08,16,17,17,15.80
2010,08,16,17,18,15.80
2010,08,16,17,19,15.90
2010,08,16,17,20,15.90
2010,08,16,17,21,15.80